Location: Darenth
(51.4167°N, 0.2333°E)
Time: 18:03:57
(UTC+00:00)

Daily predictions for brighter satellites

Satellite Brightness Start Highest point End
(mag) Time Altitude Azimuth Time Altitude Azimuth Time Altitude Azimuth
Cosmos 1933 Rocket 4.0 20:56:48 10° NNW 21:01:12 65° W 21:05:35 10° S
Cosmos 1954 Rocket 4.0 20:58:43 10° SSW 21:04:00 79° ESE 21:09:18 10° NNE
Resurs 01 Rocket 4.2 21:01:14 10° SW 21:04:14 18° W 21:07:15 10° NW
CZ-4C R/B 3.8 21:00:30 10° N 21:04:38 71° WNW 21:08:44 10° SSW
Landsat 4 3.6 21:01:26 10° SSE 21:04:51 66° ENE 21:08:16 10° N
COSMOS 2406 3.4 20:59:33 10° SSW 21:05:19 81° WNW 21:11:06 10° NNE
Cosmos 1980 Rocket 4.0 21:00:43 10° NW 21:05:24 27° WSW 21:10:03 10° SSW
Cosmos 2322 Rocket 2.4 21:00:53 10° NNW 21:06:33 65° ENE 21:12:12 10° SE
Cosmos 1356 Rocket 4.5 21:06:48 10° SSE 21:10:24 29° E 21:14:02 10° NNE
SeaSat 1 3.1 21:08:49 10° SSE 21:13:36 52° WSW 21:18:25 10° NW
Meteor 1-13 Rocket 4.3 21:08:06 10° S 21:13:53 80° E 21:19:35 10° NNE
Cosmos 676 Rocket 4.0 21:08:49 10° SSW 21:14:08 79° ESE 21:19:28 10° NNE
Cosmos 2278 4.1 21:11:03 10° NW 21:16:42 62° WSW 21:22:18 10° SSE
Cosmos 1707 3.3 21:13:30 10° SSW 21:17:02 54° WNW 21:20:36 10° N
MOS 1 Rocket 3.7 21:15:13 10° SSE 21:20:37 86° WSW 21:25:58 10° NNW
USA 234 3.3 21:16:58 10° ENE 21:23:30 67° SE 21:29:59 10° SW
Cosmos 1455 4.0 21:24:19 10° NNE 21:26:43 17° ENE 21:29:08 10° ESE
COSMOS 2428 4.3 21:22:13 10° NNW 21:27:03 28° NE 21:31:54 10° E
Cosmos 1400 Rocket 2.7 21:23:13 10° S 21:27:05 71° E 21:30:56 10° NNE
SL-4 R/B 1.9 21:23:21 10° W 21:27:13 89° SSE 21:31:20 10° E
Meteor 2-10 Rocket 3.7 21:24:57 10° NNW 21:30:38 90° NE 21:36:04 10° S
Cosmos 2219 Rocket 2.9 21:28:20 10° NNW 21:33:51 48° NE 21:39:19 10° SE
Landsat 5 3.8 21:30:10 10° NNE 21:34:00 45° E 21:37:56 10° S
Cosmos 841 Rocket 3.9 21:30:48 10° NNW 21:36:00 62° WSW 21:41:11 10° S
SPOT 5 4.5 21:32:31 10° SSW 21:36:09 26° W 21:39:51 10° NW
Cosmos 1707 Rocket 3.9 21:31:55 10° S 21:36:14 52° E 21:40:34 10° NNE
ERS-1 Rocket 4.0 21:33:36 10° S 21:38:23 43° W 21:43:12 10° NNW
ATLAS CENTAUR R/B 1.9 21:35:43 10° S 21:38:42 27° ESE 21:41:48 10° ENE
Cosmos 1315 Rocket 4.2 21:39:54 12° SE 21:42:35 23° E 21:45:46 10° NE
SJ 16-02 2.4 21:39:28 12° SSE 21:42:43 28° E 21:46:25 10° NE
ARIANE 5 R/B 3.7 21:39:26 11° SE 21:43:11 32° ENE 21:47:03 10° N
Meteor 1-4 Rocket 3.5 21:41:42 14° SE 21:43:26 23° E 21:45:52 10° NE
SL-27 R/B 2.8 21:41:51 14° SSE 21:43:45 30° ESE 21:46:17 10° NE
Cosmos 1953 3.4 21:41:08 10° N 21:44:35 31° ENE 21:47:31 13° SE
Okean 3 4.0 21:41:42 12° SSE 21:45:14 42° E 21:49:11 10° NNE
Spot 2 Rocket 4.3 21:41:02 10° S 21:45:56 49° W 21:50:53 10° NNW
Aureole 3 3.8 21:49:38 13° SSE 21:52:56 51° E 21:57:35 10° NNE
Cosmos 1300 2.9 21:50:19 10° NNW 21:53:50 60° W 21:57:03 12° S
Cosmos 1733 Rocket 3.2 21:51:06 10° NNW 21:55:31 78° W 21:59:30 13° S
Spot 1 4.2 21:51:26 10° NNE 21:55:55 79° ESE 22:00:37 10° SSW
Meteor 1-23 Rocket 4.4 21:51:39 10° SSW 21:57:20 79° WNW 22:03:06 10° N
Cosmos 2360 Rocket 2.3 21:51:59 10° NNW 21:57:41 74° WSW 22:02:32 14° SSE
Cosmos 1655 Rocket 4.2 21:52:54 10° S 21:59:18 85° W 22:05:45 10° N
Cosmos 839 Rocket 4.2 21:53:58 10° NW 22:01:14 88° NE 22:06:44 14° SE
GP-B 4.1 21:57:23 10° NNE 22:01:24 33° E 22:04:27 15° SE
H-2A R/B 3.9 21:59:14 11° ESE 22:02:42 30° ENE 22:06:25 10° N
ATLAS 2AS CENTAUR R/B 2.8 21:59:06 10° NW 22:05:57 71° SW 22:11:32 15° SSE
Cosmos 2333 Rocket 2.4 22:00:37 10° NW 22:06:21 70° WSW 22:11:07 15° SSE
SL-16 R/B 3.4 22:01:27 10° NW 22:06:32 35° WSW 22:11:36 10° S
Cosmos 1908 Rocket 4.0 22:03:40 10° N 22:07:56 50° ENE 22:11:05 17° SSE
SL-14 R/B 3.6 22:05:19 10° SSW 22:09:04 61° WNW 22:12:50 10° N
Ariane Rocket 4.4 22:06:08 10° SSW 22:10:41 33° W 22:15:17 10° NNW
Cosmos 2228 Rocket 3.5 22:06:17 10° SSW 22:10:49 68° WNW 22:15:24 10° N
MetOp-A 4.4 22:07:04 12° S 22:11:46 62° WSW 22:17:00 10° NNW
RESURS DK-1 3.7 22:08:16 10° NW 22:11:53 30° WSW 22:14:58 13° S
Cosmos 807 4.4 22:08:48 12° SSW 22:11:56 73° W 22:14:56 10° N
BREEZE-M DEB (TANK) 3.0 22:09:49 10° WSW 22:12:26 60° SSE 22:18:44 10° E
Cosmos 2082 Rocket 4.4 22:08:45 10° WSW 22:13:41 29° NW 22:18:38 10° NNE
Okean 1-7 3.2 22:13:21 16° S 22:16:36 56° E 22:20:51 10° NNE
Cosmos 1346 Rocket 3.7 22:14:33 10° NNW 22:18:13 40° W 22:21:26 12° SSW
BREEZE-M DEB (TANK) 2.3 22:17:01 10° W 22:22:45 74° N 22:25:04 10° ENE
Cosmos 1833 4.2 22:17:18 10° SSW 22:22:53 68° ESE 22:28:28 10° NE
BlueWalker 3 4.1 22:24:28 11° ESE 22:24:28 11° ESE 22:24:40 10° ESE
Cosmos 1408 4.3 22:22:39 12° ESE 22:23:32 13° E 22:25:02 10° ENE
Cosmos 1850 Rocket 4.2 22:18:19 10° SSW 22:23:33 73° WNW 22:28:46 10° NNE
Terra 3.9 22:20:21 10° SW 22:23:48 20° W 22:27:17 10° NW
Cosmos 1242 Rocket 3.1 22:23:20 22° SE 22:24:12 26° E 22:26:36 10° NE
MINOTAUR 4 R/B 4.5 22:22:24 10° NNE 22:25:05 32° E 22:26:11 24° SE
Cosmos 1570 Rocket 4.3 22:25:01 10° NNW 22:30:23 66° ENE 22:34:28 17° SE
Cosmos 2237 Rocket 3.6 22:25:56 10° NNW 22:31:01 32° NE 22:36:02 10° ESE
Cosmos 1300 Rocket 4.4 22:27:01 10° N 22:31:05 39° ENE 22:33:56 17° SE
Cosmos 2322 3.9 22:25:56 10° NNW 22:31:40 71° ENE 22:36:10 16° SE
USA 281 3.3 22:28:55 17° SSE 22:34:14 79° WSW 22:40:51 10° NNW
ALOS 2 3.6 22:32:43 15° SE 22:35:53 37° ENE 22:39:57 10° N
CZ-2C R/B 3.6 22:35:53 10° NNE 22:40:20 77° ESE 22:43:36 18° S
CZ-4C R/B 3.5 22:42:23 14° SE 22:43:39 15° ESE 22:46:36 10° ENE
Cosmos 968 Rocket 3.8 22:40:26 10° SSW 22:45:34 68° WNW 22:50:47 10° NNE
Cosmos 2322 Rocket 3.7 22:45:33 10° NW 22:50:09 26° WSW 22:54:24 11° SSW
Cosmos 1703 Rocket 3.6 22:48:43 20° S 22:51:49 83° E 22:56:18 10° NNE
Spot 4 3.9 22:49:10 21° SSE 22:52:24 73° ENE 22:57:13 10° NNW
NOSS 0 Rocket 4.2 22:47:11 10° NNW 22:53:26 65° NE 22:58:45 14° SE
SL-08 R/B 4.5 22:48:53 15° S 22:54:02 85° W 23:00:11 10° N
Cosmos 158 Rocket 4.1 22:49:09 10° NNW 22:54:30 73° ENE 22:58:13 20° SE
Okean 2 3.8 22:54:53 16° SSW 22:57:57 58° WNW 23:01:57 10° N
EXPRESS MD2 1.7 22:57:08 10° W 22:59:18 58° S 22:59:34 52° SE
PSLV R/B 3.8 22:55:51 10° NNE 22:59:53 90° ESE 23:02:29 21° SSW
Cosmos 2242 Rocket 4.3 22:57:30 22° SSE 23:00:00 41° E 23:04:19 10° NNE
Cosmos 2297 Rocket 3.6 22:57:55 16° SE 23:00:29 22° E 23:04:40 10° NE
Cosmos 1455 2.9 22:58:02 10° NNW 23:01:21 40° W 23:03:18 21° SSW
Cosmos 2208 Rocket 4.0 22:57:12 10° NNW 23:02:27 88° ENE 23:05:55 21° SSE
SL-4 R/B 1.9 23:02:02 10° W 23:06:02 82° SSW 23:10:17 10° ESE
NOSS 5 (C) 4.1 23:03:09 10° NW 23:06:20 73° SW 23:07:42 30° SSE
USA 234 3.7 23:00:04 10° ENE 23:06:33 66° NNW 23:13:01 10° W
Cosmos 1932 4.4 23:00:15 10° SW 23:06:36 84° SE 23:12:54 10° NE
SAR-Lupe-3 4.5 23:06:34 28° SSE 23:08:22 89° ENE 23:11:59 10° NNW
COSMOS 2428 2.7 23:06:12 10° NNW 23:11:55 77° WSW 23:15:44 22° SSE
CENTAUR R/B 4.3 23:13:20 10° ESE 23:15:05 11° E 23:16:56 10° E
COSMOS 2455 3.5 23:12:16 21° SSE 23:15:37 39° ESE 23:21:09 10° NE
ATLAS CENTAUR R/B 2.4 23:12:53 10° WSW 23:16:13 39° NW 23:19:42 10° NNE
Meteor 1-4 Rocket 4.3 23:13:54 10° WSW 23:16:14 21° WNW 23:18:37 10° NNW
GENESIS II 4.2 23:14:53 28° S 23:16:27 50° SE 23:20:00 10° NE
Cosmos 2219 Rocket 3.1 23:12:32 10° NW 23:17:41 37° WSW 23:21:08 19° SSW
Cosmos 1315 Rocket 4.0 23:15:10 12° SW 23:18:32 37° WNW 23:22:17 10° N
ARIANE 5 R/B 3.7 23:16:54 18° SSW 23:19:33 33° W 23:23:30 10° NNW
Cosmos 1953 3.9 23:17:06 10° NNW 23:20:18 25° W 23:22:38 15° SW
SJ 16-02 2.6 23:16:53 10° SW 23:20:56 39° WNW 23:25:02 10° N
PSLV R/B 4.0 23:27:00 10° NNE 23:31:06 45° E 23:33:07 26° SSE
Cosmos 304 Rocket 4.4 23:31:07 24° SSE 23:33:27 42° ESE 23:37:56 10° NE
Cosmos 1745 Rocket 4.2 23:30:01 18° SSW 23:34:56 71° WNW 23:41:19 10° N
H-2A R/B 3.5 23:35:13 21° SSW 23:37:32 37° W 23:41:32 10° NNW
Okean 1 Rocket 4.4 23:36:07 10° N 23:40:03 32° ENE 23:43:06 15° SE
Cosmos 2360 Rocket 4.3 23:37:55 10° WNW 23:40:41 14° W 23:43:25 10° SW
Cosmos 1486 Rocket 4.0 23:41:55 23° SSW 23:45:11 74° ESE 23:50:24 10° NNE
Cosmos 2181 Rocket 4.1 23:39:03 10° N 23:45:18 73° ENE 23:49:34 21° SSE
Cosmos 1825 3.4 23:47:12 20° SE 23:48:29 26° E 23:51:24 10° NNE
Cosmos 2333 Rocket 4.4 23:47:01 10° WNW 23:49:34 13° W 23:52:08 10° WSW
ATLAS 2AS CENTAUR R/B 4.4 23:51:34 10° WNW 23:55:37 17° WSW 23:58:56 12° SW
Cosmos 1408 3.2 23:54:41 23° SW 23:55:57 35° WNW 23:58:45 10° N
Cosmos 1242 Rocket 4.5 23:54:32 10° WSW 23:56:18 15° WNW 23:58:04 10° NNW
